Location: Auckland
(36.8670°S, 174.7670°E)
Time: 19:28:11
(UTC+12:00)

A-11 Canister half - Pass Details

Date: 28 July 2019
Orbit: 1526 x 1682 km, 47.3° (Epoch: 24 August)

Event Time Altitude Azimuth Distance (km) Brightness Sun altitude
Rises 11:04:56 0° 247° (WSW) 4,733 11.2 30.7°
Reaches altitude 10° 11:08:08 10° 241° (WSW) 3,767 10.7 31.0°
Maximum altitude 11:17:23 50° 166° (SSE) 1,967 9.6 31.6°
Drops below altitude 10° 11:26:56 10° 92° (E) 3,879 11.4 32.2°
Sets 11:30:16 0° 87° (E) 4,883 11.9 32.4°
